{"data":{"norad_id":67243,"intl_designator":"2025-311H","name":"HULIANWANG DIGUI-135","alt_names":[],"object_type":"PAYLOAD","status":"ACTIVE","operator":null,"country":"PRC","launch_date":"2025-12-25","launch_site_code":"WSC","launch_vehicle":null,"mission":null,"orbit_class":"UNKNOWN","rcs_meters":null,"size_class":null,"mass_kg":null,"dimensions":null,"purposes":[],"wikipedia_slug":null,"has_3d_model":false,"image_url":null,"decayed_at":null,"tle_current":{"epoch":"2026-05-25T03:45:45.145728Z","epoch_age_seconds":57414,"freshness":"FRESH","line1":"1 67243U 25311H   26145.15677252 -.00000100  00000+0  52013-4 0  9993","line2":"2 67243  50.0005 198.4952 0001034 246.0066 114.0698 13.29322627 20271","mean_motion":13.29322627,"eccentricity":0.0001034,"inclination_deg":50.0005,"raan_deg":198.4952,"arg_perigee_deg":246.0066,"mean_anomaly_deg":114.0698,"bstar":5.2013e-5,"rev_number":2027,"period_min":108.32584737159,"perigee_km":1148.5409662023,"apogee_km":1150.0976441662,"semimajor_km":7527.4563051842,"source":"CELESTRAK","updated_at":"2026-05-25T13:38:06.823283Z"}}}